Year,Month,Day,Hour,Minute,Value (Times are PST for barometer in hPa)
2015,08,29,00,00,1007.28
2015,08,29,00,01,1007.25
2015,08,29,00,02,1007.20
2015,08,29,00,03,1007.18
2015,08,29,00,04,1007.18
2015,08,29,00,05,1007.17
2015,08,29,00,06,1007.13
2015,08,29,00,07,1007.10
2015,08,29,00,08,1007.06
2015,08,29,00,09,1007.04
2015,08,29,00,10,1007.03
2015,08,29,00,11,1007.00
2015,08,29,00,12,1006.96
2015,08,29,00,13,1006.93
2015,08,29,00,14,1006.91
2015,08,29,00,15,1006.90
2015,08,29,00,16,1006.88
2015,08,29,00,17,1006.89
2015,08,29,00,18,1006.88
2015,08,29,00,19,1006.84
2015,08,29,00,20,1006.86
2015,08,29,00,21,1006.83
2015,08,29,00,22,1006.76
2015,08,29,00,23,1006.74
2015,08,29,00,24,1006.71
2015,08,29,00,25,1006.66
2015,08,29,00,26,1006.64
2015,08,29,00,27,1006.61
2015,08,29,00,28,1006.57
2015,08,29,00,29,1006.56
2015,08,29,00,30,1006.54
2015,08,29,00,31,1006.52
2015,08,29,00,32,1006.50
2015,08,29,00,33,1006.50
2015,08,29,00,34,1006.50
2015,08,29,00,35,1006.50
2015,08,29,00,36,1006.49
2015,08,29,00,37,1006.47
2015,08,29,00,38,1006.46
2015,08,29,00,39,1006.42
2015,08,29,00,40,1006.40
2015,08,29,00,41,1006.39
2015,08,29,00,42,1006.37
2015,08,29,00,43,1006.34
2015,08,29,00,44,1006.29
2015,08,29,00,45,1006.28
2015,08,29,00,46,1006.29
2015,08,29,00,47,1006.25
2015,08,29,00,48,1006.25
2015,08,29,00,49,1006.25
2015,08,29,00,50,1006.25
2015,08,29,00,51,1006.24
2015,08,29,00,52,1006.23
2015,08,29,00,53,1006.25
2015,08,29,00,54,1006.22
2015,08,29,00,55,1006.20
2015,08,29,00,56,1006.18
2015,08,29,00,57,1006.16
2015,08,29,00,58,1006.16
2015,08,29,00,59,1006.16
2015,08,29,01,00,1006.13
2015,08,29,01,01,1006.10
2015,08,29,01,02,1006.10
2015,08,29,01,03,1006.08
2015,08,29,01,04,1006.05
2015,08,29,01,05,1006.00
2015,08,29,01,06,1005.95
2015,08,29,01,07,1005.93
2015,08,29,01,08,1005.93
2015,08,29,01,09,1005.90
2015,08,29,01,10,1005.86
2015,08,29,01,11,1005.85
2015,08,29,01,12,1005.81
2015,08,29,01,13,1005.79
2015,08,29,01,14,1005.76
2015,08,29,01,15,1005.71
2015,08,29,01,16,1005.69
2015,08,29,01,17,1005.68
2015,08,29,01,18,1005.64
2015,08,29,01,19,1005.61
2015,08,29,01,20,1005.59
2015,08,29,01,21,1005.57
2015,08,29,01,22,1005.51
2015,08,29,01,23,1005.45
2015,08,29,01,24,1005.44
2015,08,29,01,25,1005.41
2015,08,29,01,26,1005.39
2015,08,29,01,27,1005.36
2015,08,29,01,28,1005.33
2015,08,29,01,29,1005.34
2015,08,29,01,30,1005.32
2015,08,29,01,31,1005.30
2015,08,29,01,32,1005.28
2015,08,29,01,33,1005.28
2015,08,29,01,34,1005.28
2015,08,29,01,35,1005.27
2015,08,29,01,36,1005.25
2015,08,29,01,37,1005.25
2015,08,29,01,38,1005.22
2015,08,29,01,39,1005.17
2015,08,29,01,40,1005.13
2015,08,29,01,41,1005.08
2015,08,29,01,42,1005.03
2015,08,29,01,43,1005.01
2015,08,29,01,44,1005.00
2015,08,29,01,45,1004.97
2015,08,29,01,46,1004.95
2015,08,29,01,47,1004.93
2015,08,29,01,48,1004.90
2015,08,29,01,49,1004.86
2015,08,29,01,50,1004.84
2015,08,29,01,51,1004.81
2015,08,29,01,52,1004.76
2015,08,29,01,53,1004.73
2015,08,29,01,54,1004.69
2015,08,29,01,55,1004.63
2015,08,29,01,56,1004.59
2015,08,29,01,57,1004.61
2015,08,29,01,58,1004.56
2015,08,29,01,59,1004.50
2015,08,29,02,00,1004.49
2015,08,29,02,01,1004.46
2015,08,29,02,02,1004.42
2015,08,29,02,03,1004.39
2015,08,29,02,04,1004.36
2015,08,29,02,05,1004.31
2015,08,29,02,06,1004.25
2015,08,29,02,07,1004.21
2015,08,29,02,08,1004.17
2015,08,29,02,09,1004.17
2015,08,29,02,10,1004.15
2015,08,29,02,11,1004.13
2015,08,29,02,12,1004.12
2015,08,29,02,13,1004.08
2015,08,29,02,14,1004.03
2015,08,29,02,15,1004.01
2015,08,29,02,16,1004.00
2015,08,29,02,17,1003.93
2015,08,29,02,18,1003.91
2015,08,29,02,19,1003.92
2015,08,29,02,20,1003.88
2015,08,29,02,21,1003.85
2015,08,29,02,22,1003.81
2015,08,29,02,23,1003.78
2015,08,29,02,24,1003.75
2015,08,29,02,25,1003.71
2015,08,29,02,26,1003.68
2015,08,29,02,27,1003.66
2015,08,29,02,28,1003.64
2015,08,29,02,29,1003.61
2015,08,29,02,30,1003.59
2015,08,29,02,31,1003.60
2015,08,29,02,32,1003.62
2015,08,29,02,33,1003.61
2015,08,29,02,34,1003.60
2015,08,29,02,35,1003.62
2015,08,29,02,36,1003.61
2015,08,29,02,37,1003.58
2015,08,29,02,38,1003.54
2015,08,29,02,39,1003.54
2015,08,29,02,40,1003.56
2015,08,29,02,41,1003.57
2015,08,29,02,42,1003.58
2015,08,29,02,43,1003.58
2015,08,29,02,44,1003.60
2015,08,29,02,45,1003.56
2015,08,29,02,46,1003.53
2015,08,29,02,47,1003.48
2015,08,29,02,48,1003.43
2015,08,29,02,49,1003.37
2015,08,29,02,50,1003.34
2015,08,29,02,51,1003.31
2015,08,29,02,52,1003.26
2015,08,29,02,53,1003.19
2015,08,29,02,54,1003.14
2015,08,29,02,55,1003.08
2015,08,29,02,56,1003.03
2015,08,29,02,57,1003.03
2015,08,29,02,58,1003.01
2015,08,29,02,59,1003.01
2015,08,29,03,00,1003.00
2015,08,29,03,01,1002.98
2015,08,29,03,02,1002.98
2015,08,29,03,03,1002.95
2015,08,29,03,04,1002.90
2015,08,29,03,05,1002.87
2015,08,29,03,06,1002.86
2015,08,29,03,07,1002.87
2015,08,29,03,08,1002.83
2015,08,29,03,09,1002.81
2015,08,29,03,10,1002.77
2015,08,29,03,11,1002.71
2015,08,29,03,12,1002.72
2015,08,29,03,13,1002.74
2015,08,29,03,14,1002.73
2015,08,29,03,15,1002.70
2015,08,29,03,16,1002.66
2015,08,29,03,17,1002.63
2015,08,29,03,18,1002.59
2015,08,29,03,19,1002.55
2015,08,29,03,20,1002.48
2015,08,29,03,21,1002.43
2015,08,29,03,22,1002.39
2015,08,29,03,23,1002.39
2015,08,29,03,24,1002.39
2015,08,29,03,25,1002.36
2015,08,29,03,26,1002.32
2015,08,29,03,27,1002.30
2015,08,29,03,28,1002.30
2015,08,29,03,29,1002.30
2015,08,29,03,30,1002.29
2015,08,29,03,31,1002.27
2015,08,29,03,32,1002.26
2015,08,29,03,33,1002.24
2015,08,29,03,34,1002.21
2015,08,29,03,35,1002.17
2015,08,29,03,36,1002.14
2015,08,29,03,37,1002.09
2015,08,29,03,38,1002.08
2015,08,29,03,39,1002.07
2015,08,29,03,40,1002.03
2015,08,29,03,41,1002.03
2015,08,29,03,42,1002.03
2015,08,29,03,43,1002.02
2015,08,29,03,44,1001.99
2015,08,29,03,45,1001.97
2015,08,29,03,46,1001.97
2015,08,29,03,47,1001.94
2015,08,29,03,48,1001.90
2015,08,29,03,49,1001.91
2015,08,29,03,50,1001.96
2015,08,29,03,51,1001.97
2015,08,29,03,52,1001.92
2015,08,29,03,53,1001.90
2015,08,29,03,54,1001.87
2015,08,29,03,55,1001.83
2015,08,29,03,56,1001.82
2015,08,29,03,57,1001.78
2015,08,29,03,58,1001.78
2015,08,29,03,59,1001.78
2015,08,29,04,00,1001.75
2015,08,29,04,01,1001.71
2015,08,29,04,02,1001.65
2015,08,29,04,03,1001.59
2015,08,29,05,02,1000.17
2015,08,29,05,03,1000.13
2015,08,29,05,04,1000.10
2015,08,29,05,05,1000.03
2015,08,29,05,06,999.93
2015,08,29,05,07,999.88
2015,08,29,05,08,999.81
2015,08,29,05,09,999.74
2015,08,29,05,10,999.73
2015,08,29,05,11,999.71
2015,08,29,05,12,999.70
2015,08,29,05,13,999.68
2015,08,29,05,14,999.68
2015,08,29,05,15,999.73
2015,08,29,05,16,999.76
2015,08,29,05,17,999.73
2015,08,29,05,18,999.68
2015,08,29,05,19,999.60
2015,08,29,05,20,999.56
2015,08,29,05,21,999.52
2015,08,29,05,22,999.49
2015,08,29,05,23,999.49
2015,08,29,05,24,999.51
2015,08,29,05,25,999.56
2015,08,29,05,26,999.59
2015,08,29,05,27,999.59
2015,08,29,05,28,999.59
2015,08,29,05,29,999.59
2015,08,29,05,30,999.53
2015,08,29,05,31,999.43
2015,08,29,05,32,999.35
2015,08,29,05,33,999.30
2015,08,29,05,34,999.25
2015,08,29,05,35,999.22
2015,08,29,05,36,999.22
2015,08,29,05,37,999.20
2015,08,29,05,38,999.17
2015,08,29,05,39,999.15
2015,08,29,05,40,999.12
2015,08,29,05,41,999.07
2015,08,29,05,42,999.03
2015,08,29,05,43,999.02
2015,08,29,05,44,999.02
2015,08,29,05,45,999.06
2015,08,29,05,46,999.07
2015,08,29,05,47,999.02
2015,08,29,05,48,998.95
2015,08,29,05,49,998.90
2015,08,29,05,50,998.86
2015,08,29,05,51,998.83
2015,08,29,05,52,998.80
2015,08,29,05,53,998.76
2015,08,29,05,54,998.71
2015,08,29,05,55,998.70
2015,08,29,05,56,998.68
2015,08,29,05,57,998.67
2015,08,29,05,58,998.68
2015,08,29,05,59,998.68
2015,08,29,06,00,998.66
2015,08,29,06,01,998.63
2015,08,29,06,02,998.57
2015,08,29,06,03,998.54
2015,08,29,06,04,998.52
2015,08,29,06,05,998.51
2015,08,29,06,06,998.55
2015,08,29,06,07,998.54
2015,08,29,06,08,998.49
2015,08,29,06,09,998.46
2015,08,29,06,10,998.42
2015,08,29,06,11,998.41
2015,08,29,06,12,998.37
2015,08,29,06,13,998.34
2015,08,29,06,14,998.27
2015,08,29,06,15,998.17
2015,08,29,06,16,998.10
2015,08,29,06,17,998.07
2015,08,29,06,18,998.05
2015,08,29,06,19,998.02
2015,08,29,06,20,998.02
2015,08,29,06,21,998.00
2015,08,29,06,22,997.95
2015,08,29,06,23,997.96
2015,08,29,06,24,997.95
2015,08,29,06,25,997.96
2015,08,29,06,26,997.95
2015,08,29,06,27,997.88
2015,08,29,06,28,997.83
2015,08,29,06,29,997.83
2015,08,29,06,30,997.80
2015,08,29,06,31,997.77
2015,08,29,06,32,997.75
2015,08,29,06,33,997.73
2015,08,29,06,34,997.77
2015,08,29,06,35,997.78
2015,08,29,06,36,997.77
2015,08,29,06,37,997.69
2015,08,29,06,38,997.57
2015,08,29,06,39,997.51
2015,08,29,06,40,997.42
2015,08,29,06,41,997.42
2015,08,29,06,42,997.46
2015,08,29,06,43,997.42
2015,08,29,06,44,997.36
2015,08,29,06,45,997.33
2015,08,29,06,46,997.31
2015,08,29,06,47,997.25
2015,08,29,06,48,997.20
2015,08,29,06,49,997.17
2015,08,29,06,50,997.16
2015,08,29,06,51,997.19
2015,08,29,06,52,997.19
2015,08,29,06,53,997.16
2015,08,29,06,54,997.16
2015,08,29,06,55,997.14
2015,08,29,06,56,997.12
2015,08,29,06,57,997.07
2015,08,29,06,58,997.04
2015,08,29,06,59,997.00
2015,08,29,07,00,997.00
2015,08,29,07,01,996.98
2015,08,29,07,02,996.90
2015,08,29,07,03,996.91
2015,08,29,07,04,996.92
2015,08,29,07,05,996.85
2015,08,29,07,06,996.76
2015,08,29,07,07,996.75
2015,08,29,07,08,996.75
2015,08,29,07,09,996.73
2015,08,29,07,10,996.70
2015,08,29,07,11,996.66
2015,08,29,07,12,996.60
2015,08,29,07,13,996.53
2015,08,29,07,14,996.51
2015,08,29,07,15,996.48
2015,08,29,07,16,996.45
2015,08,29,07,17,996.45
2015,08,29,07,18,996.43
2015,08,29,07,19,996.37
2015,08,29,07,20,996.32
2015,08,29,07,21,996.31
2015,08,29,07,22,996.26
2015,08,29,07,23,996.21
2015,08,29,07,24,996.17
2015,08,29,07,25,996.14
2015,08,29,07,26,996.16
2015,08,29,07,27,996.15
2015,08,29,07,28,996.14
2015,08,29,07,29,996.16
2015,08,29,07,30,996.15
2015,08,29,07,31,996.10
2015,08,29,07,32,996.05
2015,08,29,07,33,996.02
2015,08,29,07,34,995.99
2015,08,29,07,35,995.93
2015,08,29,07,36,995.92
2015,08,29,07,37,995.94
2015,08,29,07,38,995.98
2015,08,29,07,39,996.03
2015,08,29,07,40,996.04
2015,08,29,07,41,996.00
2015,08,29,07,42,995.92
2015,08,29,07,43,995.83
2015,08,29,07,44,995.76
2015,08,29,07,45,995.77
2015,08,29,07,46,995.76
2015,08,29,07,47,995.68
2015,08,29,07,48,995.56
2015,08,29,07,49,995.46
2015,08,29,07,50,995.41
2015,08,29,07,51,995.40
2015,08,29,07,52,995.38
2015,08,29,07,53,995.31
2015,08,29,07,54,995.21
2015,08,29,07,55,995.12
2015,08,29,07,56,995.07
2015,08,29,07,57,995.02
2015,08,29,07,58,994.95
2015,08,29,07,59,994.97
2015,08,29,08,00,995.05
2015,08,29,08,01,995.14
2015,08,29,08,02,995.21
2015,08,29,08,03,995.25
2015,08,29,08,04,995.24
2015,08,29,08,05,995.21
2015,08,29,08,06,995.19
2015,08,29,08,07,995.21
2015,08,29,08,08,995.23
2015,08,29,08,09,995.23
2015,08,29,08,10,995.21
2015,08,29,08,11,995.12
2015,08,29,08,12,995.01
2015,08,29,08,13,994.92
2015,08,29,08,14,994.89
2015,08,29,08,15,994.82
2015,08,29,08,16,994.82
2015,08,29,08,17,994.96
2015,08,29,08,18,994.99
2015,08,29,08,19,994.96
2015,08,29,08,20,994.90
2015,08,29,08,21,994.83
2015,08,29,08,22,994.80
2015,08,29,08,23,994.79
2015,08,29,08,24,994.82
2015,08,29,08,25,994.89
2015,08,29,08,26,994.94
2015,08,29,08,27,994.96
2015,08,29,08,28,994.96
2015,08,29,08,29,994.94
2015,08,29,08,30,994.92
2015,08,29,08,31,994.94
2015,08,29,08,32,994.96
2015,08,29,08,33,994.99
2015,08,29,08,34,995.02
2015,08,29,08,35,995.04
2015,08,29,08,36,995.08
2015,08,29,08,37,995.14
2015,08,29,08,38,995.17
2015,08,29,08,39,995.20
2015,08,29,08,40,995.21
2015,08,29,08,41,995.17
2015,08,29,08,42,995.14
2015,08,29,08,43,995.11
2015,08,29,08,44,995.10
2015,08,29,08,45,995.11
2015,08,29,08,46,995.08
2015,08,29,08,47,995.06
2015,08,29,08,48,995.04
2015,08,29,08,49,994.99
2015,08,29,08,50,994.96
2015,08,29,08,51,995.01
2015,08,29,08,52,995.01
2015,08,29,08,53,994.96
2015,08,29,08,54,994.94
2015,08,29,08,55,994.91
2015,08,29,08,56,994.90
2015,08,29,08,57,994.95
2015,08,29,08,58,994.97
2015,08,29,08,59,994.99
2015,08,29,09,00,995.01
2015,08,29,09,01,994.97
2015,08,29,09,02,994.92
2015,08,29,09,03,994.87
2015,08,29,09,04,994.87
2015,08,29,09,05,994.89
2015,08,29,09,06,994.90
2015,08,29,09,07,994.91
2015,08,29,09,08,994.92
2015,08,29,09,09,994.92
2015,08,29,09,10,994.91
2015,08,29,09,11,994.92
2015,08,29,09,12,994.89
2015,08,29,09,13,994.84
2015,08,29,09,14,994.83
2015,08,29,09,15,994.82
2015,08,29,09,16,994.77
2015,08,29,09,17,994.75
2015,08,29,09,18,994.77
2015,08,29,09,19,994.75
2015,08,29,09,20,994.72
2015,08,29,09,21,994.79
2015,08,29,09,22,994.83
2015,08,29,09,23,994.84
2015,08,29,09,24,994.87
2015,08,29,09,25,994.89
2015,08,29,09,26,994.89
2015,08,29,09,27,994.89
2015,08,29,09,28,994.89
2015,08,29,09,29,994.89
2015,08,29,09,30,994.89
2015,08,29,09,31,994.91
2015,08,29,09,32,994.92
2015,08,29,09,33,994.90
2015,08,29,09,34,994.89
2015,08,29,09,35,994.93
2015,08,29,09,36,994.94
2015,08,29,09,37,994.94
2015,08,29,09,38,994.92
2015,08,29,09,39,994.93
2015,08,29,09,40,994.90
2015,08,29,09,41,994.87
2015,08,29,09,42,994.87
2015,08,29,09,43,994.85
2015,08,29,09,44,994.85
2015,08,29,09,45,994.85
2015,08,29,09,46,994.89
2015,08,29,09,47,994.90
2015,08,29,09,48,994.89
2015,08,29,09,49,994.93
2015,08,29,09,50,994.96
2015,08,29,09,51,994.98
2015,08,29,09,52,994.95
2015,08,29,09,53,994.94
2015,08,29,09,54,994.92
2015,08,29,09,55,994.87
2015,08,29,09,56,994.84
2015,08,29,09,57,994.85
2015,08,29,09,58,994.87
2015,08,29,09,59,994.84
2015,08,29,10,00,994.85
2015,08,29,10,01,994.89
2015,08,29,10,02,994.87
2015,08,29,10,03,994.83
2015,08,29,10,04,994.82
2015,08,29,10,05,994.82
2015,08,29,10,06,994.82
2015,08,29,10,07,994.83
2015,08,29,10,08,994.85
2015,08,29,10,09,994.88
2015,08,29,10,10,994.89
2015,08,29,10,11,994.85
2015,08,29,10,12,994.83
2015,08,29,10,13,994.80
2015,08,29,10,14,994.81
2015,08,29,10,15,994.84
2015,08,29,10,16,994.85
2015,08,29,10,17,994.87
2015,08,29,10,18,994.86
2015,08,29,10,19,994.82
2015,08,29,10,20,994.83
2015,08,29,10,21,994.87
2015,08,29,10,22,994.87
2015,08,29,10,23,994.84
2015,08,29,10,24,994.87
2015,08,29,10,25,994.87
2015,08,29,10,26,994.82
2015,08,29,10,27,994.79
2015,08,29,10,28,994.75
2015,08,29,10,29,994.74
2015,08,29,10,30,994.70
2015,08,29,10,31,994.65
2015,08,29,10,32,994.57
2015,08,29,10,33,994.57
2015,08,29,10,34,994.60
2015,08,29,10,35,994.60
2015,08,29,10,36,994.64
2015,08,29,10,37,994.69
2015,08,29,10,38,994.70
2015,08,29,10,39,994.70
2015,08,29,10,40,994.72
2015,08,29,10,41,994.76
2015,08,29,10,42,994.79
2015,08,29,10,43,994.84
2015,08,29,10,44,994.91
2015,08,29,10,45,994.92
2015,08,29,10,46,994.85
2015,08,29,10,47,994.75
2015,08,29,10,48,994.72
2015,08,29,10,49,994.76
2015,08,29,10,50,994.73
2015,08,29,10,51,994.70
2015,08,29,10,52,994.76
2015,08,29,10,53,994.79
2015,08,29,10,54,994.81
2015,08,29,10,55,994.82
2015,08,29,10,56,994.80
2015,08,29,10,57,994.82
2015,08,29,10,58,994.89
2015,08,29,10,59,994.94
2015,08,29,11,00,994.97
2015,08,29,11,01,994.95
2015,08,29,11,02,994.96
2015,08,29,11,03,995.03
2015,08,29,11,04,995.09
2015,08,29,11,05,995.14
2015,08,29,11,06,995.20
2015,08,29,11,07,995.25
2015,08,29,11,08,995.26
2015,08,29,11,09,995.31
2015,08,29,11,10,995.34
2015,08,29,11,11,995.33
2015,08,29,11,12,995.33
2015,08,29,11,13,995.36
2015,08,29,11,14,995.38
2015,08,29,11,15,995.39
2015,08,29,11,16,995.43
2015,08,29,11,17,995.43
2015,08,29,11,18,995.43
2015,08,29,11,19,995.46
2015,08,29,11,20,995.50
2015,08,29,11,21,995.50
2015,08,29,11,22,995.50
2015,08,29,11,23,995.48
2015,08,29,11,24,995.46
2015,08,29,11,25,995.43
2015,08,29,11,26,995.37
2015,08,29,11,27,995.31
2015,08,29,11,28,995.26
2015,08,29,11,29,995.21
2015,08,29,11,30,995.16
2015,08,29,11,31,995.11
2015,08,29,11,32,995.09
2015,08,29,11,33,995.08
2015,08,29,11,34,995.03
2015,08,29,11,35,994.99
2015,08,29,11,36,994.99
2015,08,29,11,37,994.97
2015,08,29,11,38,994.92
2015,08,29,11,39,994.84
2015,08,29,11,40,994.81
2015,08,29,11,41,994.80
2015,08,29,11,42,994.74
2015,08,29,11,43,994.70
2015,08,29,11,44,994.72
2015,08,29,11,45,994.72
2015,08,29,11,46,994.70
2015,08,29,11,47,994.65
2015,08,29,11,48,994.60
2015,08,29,11,49,994.57
2015,08,29,11,50,994.52
2015,08,29,11,51,994.50
2015,08,29,11,52,994.47
2015,08,29,11,53,994.40
2015,08,29,11,54,994.38
2015,08,29,11,55,994.39
2015,08,29,11,56,994.43
2015,08,29,11,57,994.50
2015,08,29,11,58,994.56
2015,08,29,11,59,994.58
2015,08,29,12,00,994.63
2015,08,29,12,01,994.67
2015,08,29,12,02,994.68
2015,08,29,12,03,994.67
2015,08,29,12,04,994.65
2015,08,29,12,05,994.70
2015,08,29,12,06,994.73
2015,08,29,12,07,994.73
2015,08,29,12,08,994.70
2015,08,29,12,09,994.65
2015,08,29,12,10,994.62
2015,08,29,12,11,994.57
2015,08,29,12,12,994.55
2015,08,29,12,13,994.63
2015,08,29,12,14,994.68
2015,08,29,12,15,994.73
2015,08,29,12,16,994.74
2015,08,29,12,17,994.73
2015,08,29,12,18,994.76
2015,08,29,12,19,994.72
2015,08,29,12,20,994.72
2015,08,29,12,21,994.70
2015,08,29,12,22,994.68
2015,08,29,12,23,994.70
2015,08,29,12,24,994.67
2015,08,29,12,25,994.63
2015,08,29,12,26,994.64
2015,08,29,12,27,994.59
2015,08,29,12,28,994.55
2015,08,29,12,29,994.56
2015,08,29,12,30,994.57
2015,08,29,12,31,994.56
2015,08,29,12,32,994.55
2015,08,29,12,33,994.55
2015,08,29,12,34,994.57
2015,08,29,12,35,994.54
2015,08,29,12,36,994.52
2015,08,29,12,37,994.49
2015,08,29,12,38,994.42
2015,08,29,12,39,994.41
2015,08,29,12,40,994.46
2015,08,29,12,41,994.48
2015,08,29,12,42,994.53
2015,08,29,12,43,994.61
2015,08,29,12,44,994.68
2015,08,29,12,45,994.75
2015,08,29,12,46,994.77
2015,08,29,12,47,994.75
2015,08,29,12,48,994.77
2015,08,29,12,49,994.79
2015,08,29,12,50,994.79
2015,08,29,12,51,994.76
2015,08,29,12,52,994.73
2015,08,29,12,53,994.74
2015,08,29,12,54,994.70
2015,08,29,12,55,994.67
2015,08,29,12,56,994.62
2015,08,29,12,57,994.60
2015,08,29,12,58,994.60
2015,08,29,12,59,994.58
2015,08,29,13,00,994.60
2015,08,29,13,01,994.63
2015,08,29,13,02,994.64
2015,08,29,13,03,994.63
2015,08,29,13,04,994.65
2015,08,29,13,05,994.65
2015,08,29,13,06,994.62
2015,08,29,13,07,994.58
2015,08,29,13,08,994.55
2015,08,29,13,09,994.52
2015,08,29,13,10,994.53
2015,08,29,13,11,994.54
2015,08,29,13,12,994.53
2015,08,29,13,13,994.54
2015,08,29,13,14,994.52
2015,08,29,13,15,994.52
2015,08,29,13,16,994.52
2015,08,29,13,17,994.52
2015,08,29,13,18,994.53
2015,08,29,13,19,994.54
2015,08,29,13,20,994.53
2015,08,29,13,21,994.55
2015,08,29,13,22,994.58
2015,08,29,13,23,994.62
2015,08,29,13,24,994.62
2015,08,29,13,25,994.62
2015,08,29,13,26,994.59
2015,08,29,13,27,994.56
2015,08,29,13,28,994.57
2015,08,29,13,29,994.50
2015,08,29,13,30,994.46
2015,08,29,13,31,994.48
2015,08,29,13,32,994.47
2015,08,29,13,33,994.45
2015,08,29,13,34,994.45
2015,08,29,13,35,994.43
2015,08,29,13,36,994.40
2015,08,29,13,37,994.35
2015,08,29,13,38,994.30
2015,08,29,13,39,994.26
2015,08,29,13,40,994.21
2015,08,29,13,41,994.15
2015,08,29,13,42,994.11
2015,08,29,13,43,994.11
2015,08,29,13,44,994.11
2015,08,29,13,45,994.11
2015,08,29,13,46,994.11
2015,08,29,13,47,994.11
2015,08,29,13,48,994.11
2015,08,29,13,49,994.11
2015,08,29,13,50,994.11
2015,08,29,13,51,994.09
2015,08,29,13,52,994.07
2015,08,29,13,53,994.07
2015,08,29,13,54,994.07
2015,08,29,13,55,994.09
2015,08,29,13,56,994.11
2015,08,29,13,57,994.11
2015,08,29,13,58,994.12
2015,08,29,13,59,994.14
2015,08,29,14,00,994.16
2015,08,29,14,01,994.16
2015,08,29,14,02,994.17
2015,08,29,14,03,994.21
2015,08,29,14,04,994.24
2015,08,29,14,05,994.29
2015,08,29,14,06,994.33
2015,08,29,14,07,994.38
2015,08,29,14,08,994.44
2015,08,29,14,09,994.53
2015,08,29,14,10,994.61
2015,08,29,14,11,994.66
2015,08,29,14,12,994.71
2015,08,29,14,13,994.78
2015,08,29,14,14,994.85
2015,08,29,14,15,994.92
2015,08,29,14,16,994.99
2015,08,29,14,17,995.07
2015,08,29,14,18,995.17
2015,08,29,14,19,995.26
2015,08,29,14,20,995.31
2015,08,29,14,21,995.34
2015,08,29,14,22,995.39
2015,08,29,14,23,995.44
2015,08,29,14,24,995.51
2015,08,29,14,25,995.58
2015,08,29,14,26,995.65
2015,08,29,14,27,995.71
2015,08,29,14,28,995.76
2015,08,29,14,29,995.85
2015,08,29,14,30,995.95
2015,08,29,14,31,996.04
2015,08,29,14,32,996.09
2015,08,29,14,33,996.11
2015,08,29,14,34,996.11
2015,08,29,14,35,996.17
2015,08,29,14,36,996.26
2015,08,29,14,37,996.36
2015,08,29,14,38,996.48
2015,08,29,14,39,996.54
2015,08,29,14,40,996.59
2015,08,29,14,41,996.61
2015,08,29,14,42,996.63
2015,08,29,14,43,996.63
2015,08,29,14,44,996.63
2015,08,29,14,45,996.66
2015,08,29,14,46,996.71
2015,08,29,14,47,996.79
2015,08,29,14,48,996.82
2015,08,29,14,49,996.78
2015,08,29,14,50,996.80
2015,08,29,14,51,996.83
2015,08,29,14,52,996.89
2015,08,29,14,53,996.95
2015,08,29,14,54,996.98
2015,08,29,14,55,997.02
2015,08,29,14,56,997.07
2015,08,29,14,57,997.15
2015,08,29,14,58,997.22
2015,08,29,14,59,997.29
2015,08,29,15,00,997.38
2015,08,29,15,01,997.44
2015,08,29,15,02,997.53
2015,08,29,15,03,997.61
2015,08,29,15,04,997.63
2015,08,29,15,05,997.60
2015,08,29,15,06,997.60
2015,08,29,15,07,997.66
2015,08,29,15,08,997.71
2015,08,29,15,09,997.78
2015,08,29,15,10,997.80
2015,08,29,15,11,997.79
2015,08,29,15,12,997.72
2015,08,29,15,13,997.65
2015,08,29,15,14,997.64
2015,08,29,15,15,997.65
2015,08,29,15,16,997.63
2015,08,29,15,17,997.60
2015,08,29,15,18,997.58
2015,08,29,15,19,997.56
2015,08,29,15,20,997.50
2015,08,29,15,21,997.51
2015,08,29,15,22,997.56
2015,08,29,15,23,997.61
2015,08,29,15,24,997.69
2015,08,29,15,25,997.77
2015,08,29,15,26,997.75
2015,08,29,15,27,997.79
2015,08,29,15,28,997.90
2015,08,29,15,29,997.95
2015,08,29,15,30,997.94
2015,08,29,15,31,997.93
2015,08,29,15,32,997.96
2015,08,29,15,33,997.97
2015,08,29,15,34,998.06
2015,08,29,15,35,998.15
2015,08,29,15,36,998.21
2015,08,29,15,37,998.29
2015,08,29,15,38,998.32
2015,08,29,15,39,998.36
2015,08,29,15,40,998.38
2015,08,29,15,41,998.39
2015,08,29,15,42,998.45
2015,08,29,15,43,998.52
2015,08,29,15,44,998.54
2015,08,29,15,45,998.50
2015,08,29,15,46,998.44
2015,08,29,15,47,998.41
2015,08,29,15,48,998.38
2015,08,29,15,49,998.39
2015,08,29,15,50,998.40
2015,08,29,15,51,998.38
2015,08,29,15,52,998.35
2015,08,29,15,53,998.31
2015,08,29,15,54,998.39
2015,08,29,15,55,998.51
2015,08,29,15,56,998.56
2015,08,29,15,57,998.58
2015,08,29,15,58,998.59
2015,08,29,15,59,998.60
2015,08,29,16,00,998.62
2015,08,29,16,01,998.69
2015,08,29,16,02,998.76
2015,08,29,16,03,998.86
2015,08,29,16,04,998.93
2015,08,29,16,05,998.94
2015,08,29,16,06,998.96
2015,08,29,16,07,999.06
2015,08,29,16,08,999.18
2015,08,29,16,09,999.29
2015,08,29,16,10,999.35
2015,08,29,16,11,999.42
2015,08,29,16,12,999.49
2015,08,29,16,13,999.54
2015,08,29,16,14,999.59
2015,08,29,16,15,999.67
2015,08,29,16,16,999.76
2015,08,29,16,17,999.81
2015,08,29,16,18,999.83
2015,08,29,16,19,999.85
2015,08,29,16,20,999.87
2015,08,29,16,21,999.87
2015,08,29,16,22,999.88
2015,08,29,16,23,999.90
2015,08,29,16,24,999.91
2015,08,29,16,25,999.92
2015,08,29,16,26,999.89
2015,08,29,16,27,999.87
2015,08,29,16,28,999.87
2015,08,29,16,29,999.93
2015,08,29,16,30,999.97
2015,08,29,16,31,1000.03
2015,08,29,16,32,1000.15
2015,08,29,16,33,1000.16
2015,08,29,16,34,1000.12
2015,08,29,16,35,1000.13
2015,08,29,16,36,1000.14
2015,08,29,16,37,1000.13
2015,08,29,16,38,1000.32
2015,08,29,16,39,1000.43
2015,08,29,16,40,1000.44
2015,08,29,16,41,1000.51
2015,08,29,16,42,1000.52
2015,08,29,16,43,1000.56
2015,08,29,16,44,1000.56
2015,08,29,16,45,1000.58
2015,08,29,16,46,1000.67
2015,08,29,16,47,1000.67
2015,08,29,16,48,1000.61
2015,08,29,16,49,1000.64
2015,08,29,16,50,1000.69
2015,08,29,16,51,1000.74
2015,08,29,16,52,1000.75
2015,08,29,16,53,1000.79
2015,08,29,16,54,1000.88
2015,08,29,16,55,1000.87
2015,08,29,16,56,1000.89
2015,08,29,16,57,1000.99
2015,08,29,16,58,1000.99
2015,08,29,16,59,1000.92
2015,08,29,17,00,1000.97
2015,08,29,17,01,1001.02
2015,08,29,17,02,1001.00
2015,08,29,17,03,1001.05
2015,08,29,17,04,1001.11
2015,08,29,17,05,1001.18
2015,08,29,17,06,1001.21
2015,08,29,17,07,1001.20
2015,08,29,17,08,1001.22
2015,08,29,17,09,1001.23
2015,08,29,17,10,1001.25
2015,08,29,17,11,1001.27
2015,08,29,17,12,1001.29
2015,08,29,17,13,1001.30
2015,08,29,17,14,1001.34
2015,08,29,17,15,1001.36
2015,08,29,17,16,1001.39
2015,08,29,17,17,1001.42
2015,08,29,17,18,1001.42
2015,08,29,17,19,1001.42
2015,08,29,17,20,1001.44
2015,08,29,17,21,1001.44